Back to catalog

NOAA 16 DEB

AlivePO
NORAD 42413·DEBRIS·🇺🇸 United States

Launched Sep 21, 2000 from Vandenberg Space Force Base

Loading…

Next Passes (next 24 hours)

TLE

FreshSource: Space-Track

Epoch: Sep 13, 2026, 17:57 UTC

1 42413U 00055TH  26256.74854086  .00004275  00000-0  11402-2 0  9995
2 42413  98.9476  72.6515 0020388 211.1176 148.8809 14.48862368548314

Track NOAA 16 DEB in real time with AllMySat

Download on the App Store